Regional Weather Roundup
Issued by NWS Sioux Falls, SD

Home | Current Version | Previous Version | Text Only | Print | Product List | Glossary On
Versions: 1 2 3 4 5 6 7 8 9 10 11 12 13 14 15 16 17 18 19 20 21 22 23 24 25 26 27 28 29 30 31 32 33 34 35 36 37 38 39 40 41 42 43 44 45 46 47 48 49 50
000
ASUS43 KFSD 031002
RWRFSD

WEATHER ROUNDUP FOR SE SOUTH DAKOTA/SW MINNESOTA/NW IOWA
NATIONAL WEATHER SERVICE SIOUX FALLS SD
400 AM CST SAT DEC 03 2016

NOTE: "FAIR" INDICATES FEW OR NO CLOUDS BELOW 12,000 FEET WITH NO
SIGNIFICANT WEATHER AND OR OBSTRUCTIONS TO VISIBILITY.


SDZ038>040-050-052>070-031100-
SOUTHEAST SOUTH DAKOTA

CITY           SKY/WX    TMP DP  RH WIND       PRES   REMARKS
CHAMBERLAIN    CLEAR     23  22  96 SE3       30.19F
HURON          CLEAR     24  23  96 SE6       30.24F WCI  17
MADISON        CLOUDY    25  25 100 S7        30.26S WCI  17
MITCHELL       CLEAR     27  26  96 SE8       30.25F WCI  19
SIOUX FALLS    CLOUDY    30  26  85 S6        30.28F WCI  24
YANKTON        CLEAR     27  21  80 SE3       30.29F
$$

MNZ071-072-080-081-089-090-097-098-031100-
SOUTHWEST MINNESOTA

CITY           SKY/WX    TMP DP  RH WIND       PRES   REMARKS
FAIRMONT       CLOUDY    29  20  69 W10       30.32S WCI  20
JACKSON        CLOUDY    27  19  74 W7        30.31F WCI  19
LUVERNE        CLOUDY    28  23  80 CALM      30.30F
MARSHALL       CLEAR     23  17  78 W5        30.31R WCI  17
MONTEVIDEO     CLOUDY    27  27 100 W3        30.30F
PIPESTONE      MOCLDY    23  21  93 S3        30.28S
TRACY          PTCLDY    24  20  83 SW7       30.30S WCI  16
WINDOM         CLOUDY    27  19  74 CALM      30.31R
WORTHINGTON    CLOUDY    25  22  88 SW3       30.30S
$$

IAZ001>003-012>014-020>022-031-032-NEZ013-014-SDZ071-031100-
NORTHWEST IOWA

CITY           SKY/WX    TMP DP  RH WIND       PRES   REMARKS
CHEROKEE       CLOUDY    32  30  93 SW5       30.32F WCI  27
ESTHERVILLE    CLOUDY    28  23  81 W3        30.31R
LE MARS        CLOUDY    32  30  93 S6        30.32F WCI  26
ORANGE CITY    CLOUDY    30  28  93 CALM      30.30F
SIOUX CITY     PTCLDY    27  23  85 S3        30.33F
SPENCER        CLOUDY    31  27  85 W9        30.31F WCI  23
STORM LAKE     CLOUDY    32  28  86 SW5       30.31F WCI  27
$$

ABBREVIATIONS USED IN REMARKS
   TC - TEMPERATURE IN CELSIUS
  WCI - WIND CHILL INDEX
   HX - HEAT INDEX
  VSB - VISIBILITY




USA.gov is the U.S. government's official web portal to all federal, state and local government web resources and services.